Weather History for Scottsdale, AZ

Change the Weather History Date:

Tuesday, November 29, 2011

  Actual Average Record
Temperature  
Mean Temperature 60 °F -  
Max Temperature 72 °F 65 °F 84 °F (1999)
Min Temperature 48 °F 44 °F 37 °F (2004)
Degree Days  
Heating Degree Days 5    
Growing Degree Days 10 (Base 50)    
Moisture  
Dew Point 32 °F    
Average Humidity 40    
Maximum Humidity 61    
Minimum Humidity 20    
Precipitation  
Precipitation 0.00 in - - ()
Sea Level Pressure  
Sea Level Pressure 30.06 in    
Wind  
Wind Speed 1 mph (WNW)    
Max Wind Speed 4 mph    
Max Gust Speed -    
Visibility 10 miles    
Events      
Averages and records for this station are not official NWS values.
T = Trace of Precipitation, MM = Missing Value Source: NWS Daily Summary

Daily Weather History Graph

Daily Weather History Graph

Search for Another Location

Airport:

Trip Planner

Search our weather history database for the weather conditions in past years. The results will help you decide how hot, cold, wet, or windy it might be!

Date:

Astronomy

Nov. 29, 2011 Rise Set
Actual Time 7:12 AM MST 5:19 PM MST
Civil Twilight 6:44 AM MST 5:46 PM MST
Nautical Twilight 6:14 AM MST 6:17 PM MST
Astronomical Twilight 5:44 AM MST 6:47 PM MST
Moon 11:05 AM MST (11/29) 10:10 PM MST (11/29)
Length of Visible Light 11h 01m
Length of Day
10h 07m
Waxing Crescent, 25% of the Moon is Illuminated
Nov 29
Waxing Crescent
Dec 2
First Quarter
Dec 10
Full
Dec 17
Last Quarter
Dec 24
New

Hourly Weather History & Observations

Time (MST) Temp. Dew Point Humidity Pressure Visibility Wind Dir Wind Speed Gust Speed Precip Events Conditions
12:53 AM 51.1 °F 35.1 °F 54% 30.07 in 10.0 mi Calm Calm - N/A   Clear
1:53 AM 50.0 °F 34.0 °F 54% 30.07 in 10.0 mi Calm Calm - N/A   Clear
2:53 AM 52.0 °F 32.0 °F 47% 30.06 in 10.0 mi Calm Calm - N/A   Clear
3:53 AM 50.0 °F 32.0 °F 50% 30.06 in 10.0 mi Calm Calm - N/A   Clear
4:53 AM 48.0 °F 35.1 °F 61% 30.06 in 10.0 mi Calm Calm - N/A   Clear
7:53 AM 48.0 °F 35.1 °F 61% 30.11 in 10.0 mi Calm Calm - N/A   Clear
8:53 AM 52.0 °F 35.1 °F 53% 30.13 in 10.0 mi Calm Calm - N/A   Clear
9:53 AM 60.1 °F 34.0 °F 38% 30.12 in 10.0 mi Calm Calm - N/A   Clear
10:53 AM 62.1 °F 33.1 °F 34% 30.12 in 10.0 mi Variable 3.5 mph - N/A   Clear
11:53 AM 64.9 °F 33.1 °F 31% 30.10 in 10.0 mi WSW 3.5 mph - N/A   Clear
12:53 PM 69.1 °F 30.0 °F 23% 30.06 in 10.0 mi Calm Calm - N/A   Clear
1:53 PM 72.0 °F 28.9 °F 20% 30.05 in 10.0 mi West 3.5 mph - N/A   Clear
2:53 PM 72.0 °F 28.0 °F 20% 30.03 in 10.0 mi Calm Calm - N/A   Clear
3:53 PM 72.0 °F 30.0 °F 21% 30.02 in 10.0 mi Calm Calm - N/A   Clear
4:53 PM 71.1 °F 28.0 °F 20% 30.02 in 10.0 mi WNW 3.5 mph - N/A   Clear
5:53 PM 66.0 °F 30.9 °F 27% 30.03 in 10.0 mi North 3.5 mph - N/A   Clear
6:53 PM 62.1 °F 33.1 °F 34% 30.05 in 10.0 mi NW 3.5 mph - N/A   Clear
7:53 PM 57.9 °F 33.1 °F 39% 30.05 in 10.0 mi Calm Calm - N/A   Clear
9:53 PM 54.0 °F 34.0 °F 47% 30.05 in 10.0 mi Calm Calm - N/A   Clear
10:53 PM 53.1 °F 33.1 °F 47% 30.05 in 10.0 mi Calm Calm - N/A   Clear
11:53 PM 51.1 °F 34.0 °F 52% 30.04 in 10.0 mi Calm Calm - N/A   Clear